Location: San Ignacio Observatory
(34.9291°N, 104.9425°W)
Time: 20:28:22
(UTC-06:00)

OTV 5 (USA 277) - Visible Passes

Search period start: 17 August 2018 00:00
Search period end: 27 August 2018 00:00
Orbit: 316 x 317 km, 54.5° (Epoch: 30 July)

Date Brightness Start Highest point End Pass type
(mag) Time Alt. Az. Time Alt. Az. Time Alt. Az.
17 Aug ? 04:01:14 10° NNE 04:02:05 11° NE 04:02:56 10° NE visible
17 Aug ? 05:34:00 10° WNW 05:36:34 41° SW 05:39:06 10° SSE visible
17 Aug ? 20:17:36 10° S 20:19:47 22° SE 20:21:58 10° ENE visible
17 Aug ? 21:52:13 10° W 21:54:03 16° NW 21:54:41 15° NNW visible
18 Aug ? 04:18:04 18° E 04:18:04 18° E 04:19:04 10° ESE visible
18 Aug ? 05:49:34 10° W 05:50:49 12° SW 05:52:03 10° SSW visible
18 Aug ? 20:31:25 10° SW 20:34:06 86° SE 20:36:48 10° NE visible
19 Aug ? 20:46:14 10° WSW 20:48:35 26° NW 20:50:57 10° NNE visible
20 Aug ? 21:02:21 10° NW 21:03:14 11° NW 21:04:06 10° NNW visible
